Location: Devargunta
(16.7631°N, 80.9077°E)
Time: 17:04:30
(UTC+00:00)

deb Chang Zheng 4 - Pass Details

Date: 19 January 2021
Orbit: 599 x 623 km, 98.6° (Epoch: 25 February)

Event Time Altitude Azimuth Distance (km) Brightness Sun altitude
Rises 23:15:55 0° 19° (NNE) 2,845 7.0 -26.6°
Reaches altitude 10° 23:18:08 10° 24° (NNE) 1,939 6.2 -26.1°
Maximum altitude 23:22:14 53° 101° (ESE) 736 4.2 -25.2°
Drops below altitude 10° 23:26:19 10° 179° (S) 1,931 6.3 -24.2°
Sets 23:28:31 0° 183° (S) 2,832 7.1 -23.7°
